User: anonymous   Login
Location: Unspecified
(0.0000°N, 0.0000°E)
Time: 16:09:12
(UTC+00:00)
Language:

Gonets-D1 - Orbit

View from above orbital plane
View from above orbital plane
View from above satellite
View from above satellite

Ground track
Ground track

The orbit data is extracted from the following two-line orbital elements,

1 23789U 96009C   18260.66452919  .00000025  00000-0  78086-4 0  9992
2 23789  82.5827 326.2879 0004817  10.6536 349.4663 12.62600515 40615
Epoch (UTC): 17 September 2018 15:56:55
Eccentricity: 0.0004817
inclination: 82.5827°
perigee height: 1408 km
apogee height: 1416 km
right ascension of ascending node: 326.2879°
argument of perigee: 10.6536°
revolutions per day: 12.62600515
mean anomaly at epoch: 349.4663°
orbit number at epoch: 4061

The dashed part of the orbit path shows where the satellite is in the earth's shadow,  

DLR